User: anonymous   Login
Location: Montauk Point State Park
(41.0718°N, 71.8593°W)
Time: 10:27:49
(UTC-05:00)
Language:

Cosmos 1844 - Orbit

View from above orbital plane
View from above orbital plane
View from above satellite
View from above satellite

Ground track
Ground track

The orbit data is extracted from the following two-line orbital elements,

1 17973U 87041A   18016.48146409  .00000038  00000-0  44954-4 0  9990
2 17973  70.8973 184.0371 0030601 169.9568 190.2171 14.14066894583292
Epoch (UTC): 16 January 2018 11:33:18
Eccentricity: 0.0030601
inclination: 70.8973°
perigee height: 823 km
apogee height: 867 km
right ascension of ascending node: 184.0371°
argument of perigee: 169.9568°
revolutions per day: 14.14066894
mean anomaly at epoch: 190.2171°
orbit number at epoch: 58329

The dashed part of the orbit path shows where the satellite is in the earth's shadow,  

DLR